Regional Weather Roundup
Issued by NWS

Home | Current Version | Previous Version | Text Only | Print | Product List | Glossary Off
Versions: 1 2 3 4 5 6 7 8 9 10 11 12 13 14 15 16 17 18 19 20 21 22 23 24 25 26 27 28 29 30 31 32 33 34 35 36 37 38 39 40 41 42 43 44 45 46 47 48 49 50

000
ASUS45 KCYS 061710
RWRWY

WYOMING REGIONAL WEATHER ROUNDUP
NATIONAL WEATHER SERVICE CHEYENNE WY
1100 AM MDT MON JUL 06 2015

NOTE:  "FAIR" INDICATES FEW OR NO CLOUDS BELOW 12,000 FEET
WITH NO SIGNIFICANT WEATHER AND/OR OBSTRUCTIONS TO VISIBILITY.

WYZ001-061800-
YELLOWSTONE NATIONAL PARK

CITY           SKY/WX    TMP DP  RH WIND       PRES   REMARKS
LK YELLOWSTONE   N/A     57  49  74 VRB5      30.38F
W YELLOWSTONE  NOT AVBL

$$
WYZ002>013-054>058-071-098>099-061800-
NORTHERN WYOMING

CITY           SKY/WX    TMP DP  RH WIND       PRES   REMARKS
JACKSON        CLOUDY    57  54  88 S5        30.32S
CODY           CLOUDY    57  50  77 N3        30.30S
GREYBULL       CLOUDY    63  51  65 VRB5      30.25F
WORLAND        CLOUDY    61  52  72 N3        30.27F HAZE
SHERIDAN       CLOUDY    58  53  84 CALM      30.29S
BUFFALO        CLOUDY    53  51  93 SE3       30.32S FOG
GILLETTE       CLOUDY    58  50  75 NE5       30.29S
HULETT         CLOUDY    55  52  88 N5        30.30S
NEWCASTLE      FAIR      64  46  52 N3        30.27S

$$
WYZ014>020-022>026-101>103-061800-
CENTRAL WYOMING

CITY           SKY/WX    TMP DP  RH WIND       PRES   REMARKS
BIG PINEY      PTSUNNY   64  49  57 VRB5      30.33F
PINEDALE       CLOUDY    61  50  67 S6        30.35F
DUBOIS         CLOUDY    55  50  82 SE9       30.35S
LANDER         CLOUDY    56  54  93 E6        30.30S FOG
RIVERTON       CLOUDY    59  53  80 NE6       30.31S
CASPER         CLOUDY    57  51  80 SE8       30.31S HAZE
DOUGLAS        CLOUDY    57  53  86 NE5       30.31S FOG

$$
WYZ021-027>030-104>119-061800-
SOUTHERN WYOMING

CITY           SKY/WX    TMP DP  RH WIND       PRES   REMARKS
EVANSTON       FAIR      66  55  67 E9        30.32S
KEMMERER       PTSUNNY   66  52  59 E6        30.34S
FORT BRIDGER   PTSUNNY   64  59  82 CALM      30.35F
ROCK SPRINGS   FAIR      64  54  69 E8        30.31F
DIXON          PTSUNNY   67  54  61 W8        30.32S
RAWLINS        CLOUDY    59  52  77 NE8       30.34F
SARATOGA       PTSUNNY   64  54  68 N7        30.34S
LARAMIE        CLOUDY    56  51  84 NE6       30.35R
CHEYENNE       CLOUDY    55  53  93 NE9       30.32R
TORRINGTON     CLOUDY    61  52  72 NE9       30.26R HAZE
PINE BLUFFS    LGT RAIN  55  54  94 NE10      30.30R

$$


USA.gov is the U.S. government's official web portal to all federal, state and local government web resources and services.